Regional Weather Roundup
Issued by NWS

Home | Current Version | Previous Version | Graphics & Text | Print | Product List | Glossary Off
Versions: 1 2 3 4 5 6 7 8 9 10 11 12 13 14 15 16 17 18 19 20 21 22 23 24 25 26 27 28 29 30 31 32 33 34 35 36 37 38 39 40 41 42 43 44 45 46 47 48 49 50

000
ASUS43 KLSX 051657
RWRMO

WEATHER SUMMARY FOR MISSOURI
NATIONAL WEATHER SERVICE SPRINGFIELD MO
1200 PM CDT THU MAY 05 2016

NOTE: "FAIR" INDICATES FEW OR NO CLOUDS BELOW 12,000 FEET WITH NO
       SIGNIFICANT WEATHER AND/OR OBSTRUCTIONS TO VISIBILITY.
       CURRENT SKY AND/OR WEATHER CONDITIONS ARE NOT AVAILABLE FOR
       CHILLICOTHE AND FARMINGTON.

MOZ001>031-035>038-043-044-053-054-051800-
...NORTHERN AND WESTERN MISSOURI...

CITY           SKY/WX    TMP DP  RH WIND       PRES   REMARKS
KANSAS CTY INT PTSUNNY   68  39  34 N6        30.11R
LEE`S SUMMIT   SUNNY     68  39  34 VRB5      30.11R
ST JOSEPH      SUNNY     67  36  31 VRB5      30.11R
CHILLICOTHE      N/A     67  36  31 MISG      30.11R

$$
MOZ066>068-077>081-088>096-101>105-051800-
...SOUTHWEST MISSOURI...

CITY           SKY/WX    TMP DP  RH WIND       PRES   REMARKS
SPRINGFIELD    SUNNY     68  39  34 NW15      30.07R
JOPLIN         SUNNY     70  45  40 N14       30.10R
BRANSON        SUNNY     68  37  32 NW14G23   30.07S

$$
MOZ032>034-039>042-045>050-055>058-069>072-051800-
...CENTRAL MISSOURI...

CITY           SKY/WX    TMP DP  RH WIND       PRES   REMARKS
COLUMBIA       NOT AVBL
JEFFERSON CITY SUNNY     64  30  27 N12G20    30.07R
ROLLA          SUNNY     61  38  42 N15       30.04S
SEDALIA        SUNNY     68  34  28 N13G18    30.10S
WARRENSBURG    SUNNY     66  34  30 N8        30.10R

$$
MOZ051-052-059>065-051800-
...EAST CENTRAL MISSOURI...

CITY           SKY/WX    TMP DP  RH WIND       PRES   REMARKS
ST LOUIS INTL  MOSUNNY   61  39  44 N16G22    30.05R

$$
MOZ072>076-082>087-097>100-106>115-051800-
...SOUTH CENTRAL AND SOUTHEAST MISSOURI...

CITY           SKY/WX    TMP DP  RH WIND       PRES   REMARKS
CAPE GIRARDEAU SUNNY     62  38  40 N20G28    29.98S
POPLAR BLUFF   SUNNY     65  39  38 N12       29.99R
WEST PLAINS    SUNNY     67  33  28 N10G25    30.04S

$$


USA.gov is the U.S. government's official web portal to all federal, state and local government web resources and services.